STARLINK-11249, 60728

Orbit data source: Space-Track

STARLINK-11249, 60728 is a payload satellite owned by SpaceX/Seattle (US) in LEO that was launched on Wed, 28 Aug 2024 UTC via an FALCON 9 launch vehicle from the Air Force Eastern Test Range (AFETR). Payload-class satellites include a variety of spacecraft equipped with specific instruments for various scientific and technological missions. These include communications satellites like Starlink; space stations such as the ISS; scientific satellites like the Hubble; Earth observation satellites from companies like Planet Labs, Umbra, and HawkEye 360; GPS; miniature CubeSats for education and research; and military/defense satellites.

Loading next visibility...
Identifier
60728, 2024-152J
Orbit
LEO
Country
Flag of USUS
Related business
Manufacturer
SpaceX/Seattle
Mission
Operational Commercial Communications
Bus & Motor
STARLINK V2MD, Unknown motor
Mass
960 kg wet, ~910 kg dry
Launch date (UTC)
2024-08-28 (1 year ago)
Launch vehicle
FALCON 9
Launch site
Air Force Eastern Test Range (AFETR)
Object type
Payload
Rocket body
Debris
Shape & HBR
Box + 2 Pan, 18.1 m
Radar Cross Section
36.964 m², Large (>1 m²)

Expand to show TLE details & history
Last TLE update: 1 day ago

TLE from 1 day ago
0 STARLINK-11249
1 60728U 24152J   25310.53230204  .00002587  00000-0  26216-4 0  9990
2 60728  53.1596   3.2416 0001858  61.2485 298.8719 15.69709141 69493
Epoch: 2025-11-06T12:46Z
TLE epoch observation values (Epoch: 2025-11-06T12:46:30.896Z)
Latitude
-0.00004°
Longitude
125.62357°
Altitude
360.04 km
Speed
7.695 km/s
True Right ascension
00h 12m 57s
True Declination
0° 00' 00"
Sunlit
Object was in full shadow at epoch
Visualization orbit readout
Latitude
Unknown
Longitude
Unknown
Altitude
Unknown
Speed
Unknown
Apparent Right ascension
Unknown
Apparent Declination
Unknown
Sunlit
N/A
Visualization observer readout
Local Sidereal Time
11:25:21
Azimuth
Unknown
Elevation
Unknown
Doppler factor
Unknown
Orbital elements
Apogee altitude
361.242 km
Perigee altitude
358.738 km
Semi-major axis
6,738.127 km
Eccentricity
0.00019
Inclination
53.1596°
RAAN
3.2416°
Arg. of periapsis
61.2485°
True anomaly
298.85325°
Mean anomaly
298.8719°
Eccentric anomaly
298.86258°
Mean motion
3.92405 °/min
Orbital period
91.74 mins
BSTAR
0.000026216
Loading maneuver chart data...
Computing Atmospheric mass density...
Loading historical data...
Loading historical data...
Loading historical data...
Loading historical data...
Loading historical data...
Loading historical data...
Loading historical data...

Documentation

Showing up to 5 results
|